Weather in Raykonkoski

Russia / Republic of Karelia     61°55′26″N   31°33′46″E
temp.,
°C
wind,
m/s
gust,
m/s
humid.,
%
clouds,
%
prec.,
mm/h
press.,
hPa
HPBL,
m
3 august, tue
tue300:00+13ne41098100 7.8 997466
03:00+14nne41098100 33.9 991674
06:00+14n2499100 17.5 988250
09:00+14w5898100 17.7 988705
12:00+13wsw71297100 2.1 992835
15:00+13wsw5109489 4.3 995808
18:00+12wsw61192100 0.3 9981075
21:00+9wsw51094100 0.5 1000930
4 august, wed
wed400:00+9w61295100 0.7 1002957
03:00+10wsw51290100 0.8 1004828
06:00+9wsw4138972 0.0 1006552
09:00+14w612630 0.0 10081256
12:00+17w611415 0.0 10091993
15:00+19wnw693658 0.0 10112682
18:00+17w364529 0.0 10121654
21:00+12wsw11685 0.0 101410
5 august, thu
thu500:00+11sse117169 0.0 101515
03:00+12ssw1171100 0.0 101624
06:00+12ssw1173100 0.0 101713
09:00+16ssw235787 0.0 1017458
12:00+19ssw2339100 0.0 10172144
15:00+17sw125088 0.0 1018501
18:00+18w224630 0.0 1018768
21:00+13ssw006445 0.0 101811
6 august, fri
fri600:00+11e117230 0.0 101914
03:00+11e117247 0.0 101915
06:00+11ene257830 0.0 1020125
09:00+17e355114 0.0 1019487
12:00+17e255192 0.0 1019635
15:00+21ene443454 0.0 10182472
18:00+19ene35455 0.0 1018957
21:00+14ne38652 0.0 1018168
7 august, sat
sat700:00+11ene38721 0.0 1019140
03:00+10ene310731 0.0 1018186
06:00+11ene411760 0.0 1018279
09:00+16e51056100 0.0 1017930
12:00+19e6942100 0.0 10171571
15:00+19e61041100 0.0 10161630
18:00+18e51147100 0.0 10151441
21:00+15e41159100 0.1 1015944